Location: Althorst
(53.6379°N, 10.7715°E)
Time: 16:02:13
(UTC+00:00)

NOAA 11 - Pass Details

Date: 10 December 2019
Orbit: 833 x 850 km, 98.4° (Epoch: 27 January)

Event Time Altitude Azimuth Distance (km) Brightness Sun altitude
Rises 17:04:03 0° 143° (SE) 3,388 7.1 -17.5°
Reaches altitude 10° 17:06:27 10° 138° (SE) 2,459 6.3 -17.8°
Maximum altitude 17:11:40 48° 65° (ENE) 1,096 4.4 -18.6°
Drops below altitude 10° 17:16:56 10° 353° (N) 2,485 6.6 -19.3°
Sets 17:19:23 0° 348° (NNW) 3,426 7.4 -19.7°
